Other Public Products
Issued by NWS Grand Forks, ND

Home | Current Version | Previous Version | Text Only | Print | Product List | Glossary On
Versions: 1 2 3 4 5 6 7 8 9 10 11 12 13 14 15 16 17 18 19 20 21 22 23 24 25 26 27 28 29 30 31 32 33 34 35 36 37 38 39 40 41 42 43 44 45 46 47 48 49 50
000
FPUS83 KFGF 211110
OPUFGF
PRAIRIE TO PINES WEATHER ROUNDUP
NATIONAL WEATHER SERVICE EASTERN NORTH DAKOTA/GRAND FORKS ND
600 AM CDT SAT OCT 21 2017

 **SATELLITE DATA USED TO AUGMENT SKY COVER AT AUTOMATED STATIONS**
 *****  WEATHER ACROSS EASTERN NORTH DAKOTA  *****

CITY           SKY/WX    TMP DP  RH WIND       PRES   REMARKS
GRAND FORKS    FAIR      65  59  81 S16       29.33R
GRAND FORKS AF FAIR      62  57  84 S17       29.32R
GRAND CITY NWS NOT AVBL
BUXTON         NOT AVBL
DEVILS LAKE    FAIR      54  41  61 W16       29.33R
FARGO          FAIR      64  58  80 S20G37    29.40R
WAHPETON ARPT  NOT AVBL
$$

 *****  WEATHER ACROSS CENTRAL AND WESTERN NORTH DAKOTA  *****

CITY           SKY/WX    TMP DP  RH WIND       PRES   REMARKS
JAMESTOWN      FAIR      55  40  56 W13       29.39R
BISMARCK       LGT RAIN  55  40  56 W25G33    29.47R
MINOT          FAIR      54  36  50 SW20      29.36R
MINOT AFB      FAIR      52  35  52 W23G31    29.34R
GARRISON         N/A     49  39  68 W21       29.43R
WILLISTON        N/A    N/A N/A N/A MISG      29.46R
DICKINSON      FAIR      46  35  65 W26G33    29.49R
HETTINGER      FAIR      47  32  56 W33G41    29.54R
$$

 *****  OTHER OBSERVATIONS NORTHEAST NORTH DAKOTA  *****

CITY           SKY/WX    TMP DP  RH WIND       PRES   REMARKS
WALHALLA       FAIR     N/A N/A N/A SE15G22   29.26S
LANGDON        FAIR      57  57 100 S17       29.28R
CAVALIER       FAIR      61  59  94 S14G21    29.28R
GRAFTON        FAIR      63  59  88 S17G26    29.33R
CANDO          FAIR      50  45  81 W14G21    29.31R
FORT TOTTEN      N/A     55  38  53 W7        29.95S
ROLLA          FAIR      48  48 100 SW21      29.24R
RUGBY            N/A     48  36  61 W10       29.31R
 ***** THE ABOVE OBSERVATIONS ARE NON NWS ARE NOT QUALITY
        CONTROLLED AND MAY MIS-REPORT RAIN FOR SNOW...
$$

 *****  OTHER OBSERVATIONS SOUTHEAST NORTH DAKOTA *****

CITY           SKY/WX    TMP DP  RH WIND       PRES   REMARKS
COOPERSTOWN    FAIR      59  57  94 S14       29.35R
VALLEY CITY    FAIR      59  59 100 S14       29.39R
OAKES          NOT AVBL
GWINNER        SUNNY     64  59  82 S15       29.40R
SHEYENNE NWR     N/A     62  58  88 S9        29.95S
BUFFALO        NOT AVBL
WYNDMERE       NOT AVBL
 ***** THE ABOVE OBSERVATIONS ARE NON NWS ARE NOT QUALITY
       CONTROLLED AND MAY MIS-REPORT RAIN FOR SNOW...
$$

  *****  WEATHER ACROSS NORTHERN MINNESOTA  *****

CITY           SKY/WX    TMP DP  RH WIND       PRES   REMARKS
FLAG ISLAND    FAIR      55  52  88 S20       29.43R
WARROAD        FAIR      63  57  82 S16G23    29.43S
ROSEAU         FAIR      64  57  77 SE16G23   29.40S
HALLOCK        FAIR      66  57  72 S21G29    29.32S
THF RVR FALLS  FAIR      63  57  81 S21G26    29.42R
HALSTAD        NOT AVBL
FOSSTON        FAIR      63  54  72 S18G26    29.45R
BAUDETTE       FAIR      61  55  81 S16G23    29.47S
WASKISH        FAIR      61  55  82 SE8       29.49S
CROOKSTON      FAIR      66  57  72 S24G33    29.37S
$$
  *****  WEATHER ACROSS CENTRAL AND WEST MINNESOTA  *****

CITY           SKY/WX    TMP DP  RH WIND       PRES   REMARKS
BEMIDJI        CLOUDY    63  56  78 S16G25    29.50R
PARK RAPIDS    FAIR      62  56  80 S18G28    29.52S
WADENA         MOCLDY    61  55  82 S16G22    29.52S
DETROIT LAKES  FAIR      61  55  82 S17G24    29.48R
MOORHEAD       FAIR      64  57  77 S21G32    29.42R
FERGUS FALLS   FAIR      61  55  82 S17       29.48R
ELBOW LAKE     FAIR      60  56  87 SE18G25   29.49R
MORRIS MN      MOCLDY    63  57  82 SE15      29.50R
STAPLES        CLOUDY    63  54  72 S15G22    29.55S
WHEATON        FAIR      61  55  82 SE14      29.47S
$$
  *****  WEATHER ELSEWHERE ACROSS MINNESOTA  *****

CITY           SKY/WX    TMP DP  RH WIND       PRES   REMARKS
DULUTH         FAIR      58  52  80 S13       29.68F
INTRNTL FALLS  FAIR      62  51  67 S10G18    29.54S
ELY            FAIR      59  48  67 S13G20    29.66R
CLOQUET        FAIR      61  50  67 S6        29.66F
BRAINERD       CLOUDY    62  54  74 S18G28    29.58F
HIBBING        MOCLDY    60  52  74 S10G20    29.62F
ALEXANDRIA     MOCLDY    61  56  83 SE16      29.54S
SAINT CLOUD    CLOUDY    62  55  77 S17G26    29.61S
MINNEAPOLIS    CLOUDY    63  54  72 S13G22    29.69S
$$

  *****  WEATHER ACROSS SOUTH DAKOTA  *****

CITY           SKY/WX    TMP DP  RH WIND       PRES   REMARKS
SIOUX FALLS    CLOUDY    66  60  81 S18G29    29.51S
BROOKINGS      CLOUDY    62  58  86 S15       29.51R
WATERTOWN      FAIR      61  58  90 S13       29.47R
HURON          FAIR      62  58  86 S12       29.43R
SISSETON         N/A     65  58  78 S16G25    29.42R
ABERDEEN       FAIR      62  58  86 W13       29.42R
MITCHELL       FAIR      64  58  80 S13       29.45S
PIERRE         FAIR      57  45  64 NW26G35   29.50R
MOBRIDGE       FAIR      55  44  66 NW17G25   29.45R
RAPID CITY     CLOUDY    50  31  48 NW21G31   29.63R
$$

  *****  SOME WEATHER IN NEARBY STATES *****

CITY           SKY/WX    TMP DP  RH WIND       PRES   REMARKS
GLASGOW MT     CLOUDY    43  40  89 W21G31    29.54R
GREAT FALLS MT FAIR      35  24  64 SW14      29.77R
CHEYENNE WY    FAIR      38  17  42 NW22G36   29.84R
SCOTTSBLUFF NE CLOUDY    49  21  33 W24G33    29.72R
OMAHA NE       TSTM      65  60  84 S17       29.62S
DES MOINES IA  CLOUDY    64  58  80 S18G26    29.76F
DAVENPORT IA   FAIR      63  50  62 S15G21    29.97R
CHICAGO IL     MOCLDY    60  49  66 S8        30.05S
EAU CLAIRE WI  FAIR      61  49  64 S16       29.77F
LA CROSSE WI   FAIR      64  52  64 S12       29.82F
$$

  *****  SOME NATIONAL WEATHER *****

CITY           SKY/WX    TMP DP  RH WIND       PRES   REMARKS
LA GUARDIA NY  FAIR      59  43  55 CALM      30.28R
RALEIGH NC     FAIR      49  49 100 CALM      30.30R
ATLANTA GA     MOCLDY    56  48  74 E6        30.26R
NEW ORLEANS LA CLOUDY    74  70  87 E10       30.02R
OKLAHOMA CITY  CLOUDY    69  65  86 S14       29.82R
ALBUQUERQUE NM MOCLDY    59  35  40 SW16      29.91R
SALT LAKE CITY MOCLDY    45  29  53 CALM      30.10R
LOS ANGELES CA FAIR      62  38  40 N8        29.98F
BOISE ID       FAIR      34  28  79 CALM      30.10R
SEATTLE WA     LGT RAIN  46  42  86 SE5       29.88F
$$

*** WEATHER ACROSS MANITOBA...SASKATCHEWAN AND ONTARIO ***
                ***ONTARIO***

CITY           SKY/WX    TMP DP  RH WIND       PRES   REMARKS
GERALDTON      PTCLDY    50  46  87 SE3       29.82S
THUNDER BAY    LGT RAIN  55  50  82 NE3       29.76R
SIOUX LOOKOUT  CLOUDY    59  46  63 S9        29.58R
TORONTO        PTCLDY    52  45  76 VRB2      30.23R
BIG TROUT LK   MOCLDY    37  34  87 SE16G25   29.68F
PICKLE LAKE    MOCLDY    50  45  81 SE16      29.63
DRYDEN         MOCLDY    61  48  63 S14G20    29.54S
KENORA         MOCLDY    61  52  72 S10G17    29.47R
$$
                *** MANITOBA***

CITY           SKY/WX    TMP DP  RH WIND       PRES   REMARKS
BRANDON        CLEAR     45  43  93 E5        29.20R
DAUPHIN        CLEAR     36  36 100 W6        29.18S
ISLAND LAKE    MOCLDY    50  43  76 SE16      29.38S
PILOT MOUND      N/A     54  50  87 S9          N/A
THE PAS        CLEAR     41  37  87 NE7       29.22F
THOMPSON       MOCLDY    39  36  87 NE7       29.34S
WINNIPEG       PTCLDY    64  57  77 S21G28    29.27F
LYNN LAKE      CLOUDY    36  36 100 E5        29.37R
CHURCHILL      CLOUDY    36  32  87 SE24G33   29.65F
GILLAM         CLOUDY    37  32  81 SE8G17    29.47F
$$
                ***SASKATCHEWAN***

CITY           SKY/WX    TMP DP  RH WIND       PRES   REMARKS
ESTEVAN        PTCLDY    46  36  66 W15       29.35R
KINDERSLEY     CLOUDY    41  37  87 NW18G25   29.50R
LLOYDMINSTER   CLOUDY    41  36  81 NW15      29.50R
PRINCE ALBERT  MOCLDY    39  36  87 N8        29.35R
REGINA         CLOUDY    41  36  81 W12       29.33R
YORKTON        CLOUDY    41  36  81 NW6       29.19S


USA.gov is the U.S. government's official web portal to all federal, state and local government web resources and services.